DW8067 Weather Reports


time (UTC)temp
C
wind
direction
speed
KPH
gust
KPH
rain 1hr
cm
rain 24hr
cm
rain mn
cm
humidity
%
barometer
mb
20260504204507 25 250 0.0 3.2 0.00 0.00 0.00 40 1014.1
20260504203006 25 255 3.2 11.3 0.00 0.00 0.00 37 1014.3
20260504201505 25 229 3.2 9.7 0.00 0.00 0.00 45 1014.4
20260504200006 25 226 0.0 8.0 0.00 0.00 0.00 38 1014.6
20260504194503 26 231 0.0 0.0 0.00 0.00 0.00 38 1014.8
20260504193108 25 244 0.0 0.0 0.00 0.00 0.00 38 1015.1
20260504191610 24 232 0.0 4.8 0.00 0.00 0.00 38 1015.2
20260504190106 24 248 0.0 4.8 0.00 0.00 0.00 38 1015.4
20260504184553 23 248 3.2 6.4 0.00 0.00 0.00 40 1015.8
20260504183046 23 266 1.6 9.7 0.00 0.00 0.00 42 1015.9
20260504181548 23 136 0.0 6.4 0.00 0.00 0.00 41 1016.1
20260504180044 23 235 3.2 6.4 0.00 0.00 0.00 43 1016.3
20260504174544 23 170 0.0 3.2 0.00 0.00 0.00 39 1016.5
20260504173037 22 319 0.0 4.8 0.00 0.00 0.00 41 1016.6
20260504171537 22 257 1.6 6.4 0.00 0.00 0.00 42 1016.8
20260504081515 9 3 0.0 0.0 0.00 0.00 0.00 94 1017.7
20260504060104 10 3 0.0 0.0 0.00 0.00 0.00 88 1017.8
20260504044555 11 3 0.0 0.0 0.00 0.00 0.00 85 1018.2
20260504043058 11 3 0.0 0.0 0.00 0.00 0.00 86 1018.1
20260504041548 11 3 0.0 0.0 0.00 0.00 0.00 86 1018.2
20260504040100 11 3 0.0 0.0 0.00 0.00 0.00 86 1018.3
20260504034544 12 3 0.0 0.0 0.00 0.00 0.00 85 1018.3
20260504033048 12 3 0.0 0.0 0.00 0.00 0.00 84 1018.1
20260504031554 12 7 0.0 0.0 0.00 0.00 0.00 84 1018.2
20260504030044 12 323 0.0 0.0 0.00 0.00 0.00 81 1018.1
20260504024544 12 323 0.0 0.0 0.00 0.00 0.00 79 1017.9
20260504023042 13 323 0.0 0.0 0.00 0.00 0.00 77 1017.7
20260504021541 13 323 0.0 0.0 0.00 0.00 0.00 76 1017.4
20260504020043 13 323 0.0 0.0 0.00 0.00 0.00 74 1017.2
20260504014542 13 323 0.0 0.0 0.00 0.00 0.00 72 1017.0
20260504013042 14 323 0.0 0.0 0.00 0.00 0.00 70 1016.9
20260504011541 15 323 0.0 0.0 0.00 0.00 0.00 68 1016.8
20260504010038 15 323 0.0 0.0 0.00 0.00 0.00 65 1016.6
20260504004538 16 323 0.0 0.0 0.00 0.00 0.00 61 1016.5
20260504003038 17 323 0.0 0.0 0.00 0.00 0.00 59 1016.3
20260504001545 17 323 0.0 0.0 0.00 0.00 0.00 54 1016.2
20260504000037 18 323 0.0 0.0 0.00 0.00 0.00 50 1016.2
20260503234558 20 323 0.0 0.0 0.00 0.00 0.00 47 1016.3
20260503233044 21 212 0.0 0.0 0.00 0.00 0.00 45 1016.2
20260503231535 22 212 0.0 1.6 0.00 0.00 0.00 40 1016.3
20260503230033 21 200 0.0 3.2 0.00 0.00 0.00 37 1016.3
20260503224532 21 257 0.0 8.0 0.00 0.00 0.00 42 1016.4
20260503223032 21 213 4.8 14.5 0.00 0.00 0.00 43 1016.4
20260503221535 21 245 3.2 16.1 0.00 0.00 0.00 39 1016.5
20260503220031 21 288 0.0 4.8 0.00 0.00 0.00 40 1016.6
20260503214531 21 263 1.6 11.3 0.00 0.00 0.00 38 1016.7
20260503213033 21 242 4.8 12.9 0.00 0.00 0.00 37 1016.8
20260503211530 21 146 0.0 11.3 0.00 0.00 0.00 39 1016.9
20260503210028 22 82 0.0 4.8 0.00 0.00 0.00 35 1017.0